FLOCK 3P-80 (42026 NORAD) Tracking and Keplerian Element Data

This shows tracking and keplerian element data for the satellite.

Feedback or suggestion? Click here.




ElementValue
Catalog42026
NameFLOCK 3P-80
Epoch Orbit5342
Epoch Day45.60379498
Epoch Year2018
RAAN111.3108
Inclination97.4682
Eccentricity0.0009437
Argument of Perigee73.4603
Mean Anonmoly286.767
Mean Motion15.24031969
Decay Rate2.51E-05
L11 42026U 17008CG 18045.60379498 .00002510 00000-0 10641-3 0 9997
L22 42026 97.4682 111.3108 0009437 73.4603 286.7670 15.24031969 53423

Live tracking and technical data element details for FLOCK 3P-80 (NORAD 42026). FLOCK 3P-80 can be tracked NOW for your location showing map with azimuth and elevation plus other details from your city location.

Track the satellite on the map from your city or location and see movement details for azimuth, elevation, latitude, longitude, range, height, and movement on the map or in text.







IsCatalogInMostPopularTable: catalog: 42026, numindb: 153
Update: records affected: 1



GetName: 42026 FLOCK 3P-80

Hit Count: updated at: Fri, 16 Nov 2018 09:59:35 GMT